User: anonymous   Login
Location: Mason Neck State Park
(38.6428°N, 77.1981°W)
Time: 01:27:10
(UTC-04:00)
Language:

Cosmos 1400 Rocket - Orbit

View from above orbital plane
View from above orbital plane
View from above satellite
View from above satellite

Ground track
Ground track

The orbit data is extracted from the following two-line orbital elements,

1 13403U 82079B   18174.55039349 +.00000604 +00000-0 +38392-4 0  9995
2 13403 081.1676 203.8991 0034487 131.7337 228.6845 15.06839534952426
Epoch (UTC): 23 June 2018 13:12:33
Eccentricity: 0.0034487
inclination: 81.1676°
perigee height: 522 km
apogee height: 570 km
right ascension of ascending node: 203.8991°
argument of perigee: 131.7337°
revolutions per day: 15.06839534
mean anomaly at epoch: 228.6845°
orbit number at epoch: 95242

The dashed part of the orbit path shows where the satellite is in the earth's shadow,  

DLR